| time (UTC) | temp F | wind direction | speed MPH | gust MPH | rain 1hr in | rain 24hr in | rain mn in | humidity % | barometer mb |
| 20260506193353 | 57 | 0 | 3.0 | 3.0 | 0.00 | 0.00 | 0.49 | 99 | 1013.8 |
| 20260506192743 | 57 | 338 | 2.0 | 2.0 | 0.00 | 0.00 | 0.49 | 99 | 1013.8 |
| 20260506192132 | 57 | 23 | 2.0 | 5.0 | 0.00 | 0.00 | 0.49 | 99 | 1013.5 |
| 20260506191543 | 57 | 0 | 3.0 | 5.0 | 0.00 | 0.00 | 0.49 | 99 | 1013.8 |
| 20260506190913 | 57 | 315 | 6.0 | 6.0 | 0.00 | 0.00 | 0.49 | 99 | 1013.5 |
| 20260506190340 | 57 | 248 | 2.0 | 6.0 | 0.00 | 0.00 | 0.49 | 99 | 1013.5 |
| 20260506185719 | 57 | 293 | 2.0 | 2.0 | 0.00 | 0.00 | 0.49 | 99 | 1013.8 |
| 20260506184536 | 58 | 23 | 4.0 | 5.0 | 0.00 | 0.00 | 0.49 | 99 | 1013.5 |
| 20260506183920 | 58 | 23 | 3.0 | 5.0 | 0.00 | 0.00 | 0.49 | 99 | 1013.5 |
| 20260506183330 | 58 | 23 | 5.0 | 5.0 | 0.00 | 0.00 | 0.49 | 99 | 1013.5 |
| 20260506182740 | 58 | 23 | 3.0 | 4.0 | 0.00 | 0.00 | 0.49 | 99 | 1013.5 |
| 20260506181541 | 58 | 23 | 4.0 | 5.0 | 0.00 | 0.00 | 0.49 | 99 | 1013.5 |
| 20260506180936 | 58 | 0 | 4.0 | 6.0 | 0.00 | 0.00 | 0.48 | 99 | 1013.5 |
| 20260506180354 | 59 | 315 | 2.0 | 4.0 | 0.00 | 0.00 | 0.48 | 99 | 1013.5 |
| 20260506175748 | 59 | 315 | 4.0 | 5.0 | 0.00 | 0.00 | 0.47 | 99 | 1013.2 |
| 20260506175127 | 59 | 203 | 2.0 | 2.0 | 0.00 | 0.00 | 0.47 | 99 | 1013.2 |
| 20260506174531 | 59 | 23 | 2.0 | 3.0 | 0.00 | 0.00 | 0.46 | 99 | 1013.2 |
| 20260506173943 | 59 | 0 | 2.0 | 7.0 | 0.00 | 0.00 | 0.46 | 99 | 1013.2 |
| 20260506173318 | 60 | 23 | 6.0 | 6.0 | 0.00 | 0.00 | 0.46 | 99 | 1013.2 |
| 20260506172712 | 59 | 45 | 3.0 | 3.0 | 0.00 | 0.00 | 0.46 | 99 | 1013.2 |
| 20260506172141 | 60 | 0 | 2.0 | 5.0 | 0.00 | 0.00 | 0.46 | 99 | 1013.2 |
| 20260506170953 | 60 | 338 | 3.0 | 7.0 | 0.00 | 0.00 | 0.46 | 99 | 1012.8 |
| 20260506170310 | 60 | 23 | 10.0 | 10.0 | 0.00 | 0.00 | 0.46 | 99 | 1012.8 |
| 20260506163946 | 64 | 45 | 5.0 | 5.0 | 0.00 | 0.00 | 0.44 | 99 | 1012.5 |
| 20260506163334 | 64 | 45 | 3.0 | 6.0 | 0.00 | 0.00 | 0.43 | 99 | 1012.5 |
| 20260506162749 | 64 | 45 | 4.0 | 4.0 | 0.00 | 0.00 | 0.42 | 99 | 1012.1 |
| 20260506162115 | 64 | 0 | 6.0 | 9.0 | 0.00 | 0.00 | 0.42 | 99 | 1012.1 |
| 20260506161546 | 64 | 23 | 6.0 | 7.0 | 0.00 | 0.00 | 0.41 | 99 | 1012.1 |
| 20260506160934 | 64 | 45 | 2.0 | 6.0 | 0.00 | 0.00 | 0.41 | 99 | 1012.1 |
| 20260506160351 | 64 | 0 | 5.0 | 6.0 | 0.00 | 0.00 | 0.40 | 99 | 1012.1 |
| 20260506155711 | 64 | 0 | 2.0 | 2.0 | 0.00 | 0.00 | 0.38 | 99 | 1012.1 |
| 20260506155128 | 64 | 23 | 4.0 | 4.0 | 0.00 | 0.00 | 0.38 | 99 | 1012.1 |
| 20260506154542 | 64 | 23 | 2.0 | 4.0 | 0.00 | 0.00 | 0.37 | 99 | 1012.1 |
| 20260506153930 | 64 | 23 | 3.0 | 3.0 | 0.00 | 0.00 | 0.37 | 99 | 1012.1 |
| 20260506153334 | 64 | 45 | 3.0 | 5.0 | 0.00 | 0.00 | 0.36 | 99 | 1012.1 |
| 20260506152733 | 65 | 23 | 3.0 | 3.0 | 0.00 | 0.00 | 0.36 | 99 | 1012.1 |
| 20260506151533 | 65 | 45 | 3.0 | 3.0 | 0.00 | 0.00 | 0.36 | 99 | 1011.8 |
| 20260506150933 | 65 | 45 | 4.0 | 4.0 | 0.00 | 0.00 | 0.36 | 99 | 1011.8 |
| 20260506150311 | 66 | 45 | 2.0 | 3.0 | 0.00 | 0.00 | 0.36 | 99 | 1011.8 |
| 20260506145750 | 66 | 45 | 2.0 | 3.0 | 0.00 | 0.00 | 0.36 | 99 | 1011.5 |
| 20260506145133 | 66 | 45 | 2.0 | 3.0 | 0.00 | 0.00 | 0.36 | 99 | 1011.8 |
| 20260506144538 | 66 | 23 | 2.0 | 3.0 | 0.00 | 0.00 | 0.36 | 99 | 1011.5 |
| 20260506143929 | 66 | 45 | 4.0 | 4.0 | 0.00 | 0.00 | 0.36 | 99 | 1011.5 |
| 20260506143317 | 66 | 68 | 4.0 | 6.0 | 0.00 | 0.00 | 0.36 | 99 | 1011.5 |
| 20260506142716 | 66 | 0 | 3.0 | 3.0 | 0.00 | 0.00 | 0.36 | 99 | 1011.5 |
| 20260506142117 | 66 | 23 | 3.0 | 3.0 | 0.00 | 0.00 | 0.36 | 99 | 1011.5 |
| 20260506141523 | 66 | 270 | 3.0 | 6.0 | 0.00 | 0.00 | 0.36 | 99 | 1011.5 |
| 20260506140935 | 66 | 113 | 4.0 | 6.0 | 0.00 | 0.00 | 0.36 | 99 | 1011.5 |
| 20260506140343 | 66 | 0 | 2.0 | 4.0 | 0.00 | 0.00 | 0.36 | 99 | 1011.5 |
| 20260506135734 | 66 | 23 | 4.0 | 5.0 | 0.00 | 0.00 | 0.36 | 99 | 1011.5 |
| 20260506135139 | 66 | 45 | 4.0 | 7.0 | 0.00 | 0.00 | 0.36 | 99 | 1011.5 |
| 20260506134512 | 66 | 23 | 0.0 | 2.0 | 0.00 | 0.00 | 0.36 | 99 | 1011.5 |
| 20260506133920 | 66 | 23 | 0.0 | 2.0 | 0.00 | 0.00 | 0.36 | 99 | 1011.1 |
| 20260506133350 | 65 | 0 | 3.0 | 3.0 | 0.00 | 0.00 | 0.36 | 99 | 1011.1 |
| 20260506132744 | 64 | 225 | 0.0 | 0.0 | 0.00 | 0.00 | 0.36 | 99 | 1010.8 |
| 20260506132120 | 64 | 338 | 0.0 | 0.0 | 0.00 | 0.00 | 0.36 | 99 | 1011.1 |
| 20260506131514 | 63 | 0 | 0.0 | 1.0 | 0.00 | 0.00 | 0.36 | 99 | 1010.8 |
| 20260506130920 | 63 | 338 | 0.0 | 1.0 | 0.00 | 0.00 | 0.36 | 99 | 1010.8 |
| 20260506125727 | 62 | 293 | 1.0 | 1.0 | 0.00 | 0.00 | 0.36 | 99 | 1010.4 |
| 20260506125146 | 62 | 248 | 3.0 | 3.0 | 0.00 | 0.00 | 0.36 | 99 | 1010.4 |
| 20260506124511 | 61 | 158 | 2.0 | 2.0 | 0.00 | 0.00 | 0.36 | 99 | 1010.8 |
| 20260506123932 | 61 | 23 | 0.0 | 0.0 | 0.00 | 0.00 | 0.36 | 99 | 1010.4 |
| 20260506123320 | 61 | 225 | 0.0 | 0.0 | 0.00 | 0.00 | 0.36 | 99 | 1010.4 |
| 20260506122715 | 61 | 203 | 0.0 | 0.0 | 0.00 | 0.00 | 0.36 | 99 | 1010.4 |
| 20260506122149 | 61 | 90 | 0.0 | 0.0 | 0.00 | 0.00 | 0.36 | 99 | 1010.4 |
| 20260506121518 | 60 | 203 | 0.0 | 0.0 | 0.00 | 0.00 | 0.36 | 99 | 1010.4 |
| 20260506120310 | 60 | 23 | 0.0 | 0.0 | 0.00 | 0.00 | 0.36 | 99 | 1010.4 |
| 20260506115715 | 60 | 45 | 0.0 | 0.0 | 0.00 | 0.00 | 0.36 | 99 | 1010.4 |
| 20260506115122 | 60 | 45 | 0.0 | 0.0 | 0.00 | 0.00 | 0.36 | 99 | 1010.1 |
| 20260506114533 | 60 | 293 | 0.0 | 2.0 | 0.00 | 0.00 | 0.36 | 99 | 1010.1 |
| 20260506113948 | 60 | 203 | 0.0 | 1.0 | 0.00 | 0.00 | 0.36 | 99 | 1009.8 |
| 20260506112733 | 60 | 293 | 0.0 | 0.0 | 0.00 | 0.00 | 0.35 | 99 | 1010.1 |
| 20260506111515 | 59 | 68 | 1.0 | 2.0 | 0.00 | 0.00 | 0.33 | 99 | 1009.4 |
| 20260506110913 | 59 | 23 | 0.0 | 3.0 | 0.00 | 0.00 | 0.32 | 99 | 1009.4 |
| 20260506105711 | 59 | 45 | 1.0 | 1.0 | 0.00 | 0.00 | 0.30 | 99 | 1009.4 |
| 20260506105146 | 59 | 23 | 1.0 | 3.0 | 0.00 | 0.00 | 0.28 | 99 | 1009.1 |
| 20260506103921 | 59 | 180 | 0.0 | 2.0 | 0.00 | 0.00 | 0.28 | 99 | 1008.8 |
| 20260506103351 | 59 | 293 | 2.0 | 2.0 | 0.00 | 0.00 | 0.28 | 99 | 1009.1 |
| 20260506102708 | 59 | 203 | 2.0 | 2.0 | 0.00 | 0.00 | 0.28 | 99 | 1009.1 |
| 20260506102109 | 58 | 225 | 0.0 | 2.0 | 0.00 | 0.00 | 0.28 | 99 | 1009.1 |
| 20260506100950 | 59 | 203 | 0.0 | 3.0 | 0.00 | 0.00 | 0.28 | 99 | 1009.1 |
| 20260506095711 | 58 | 203 | 4.0 | 4.0 | 0.00 | 0.00 | 0.28 | 99 | 1009.1 |
| 20260506095149 | 58 | 135 | 2.0 | 4.0 | 0.00 | 0.00 | 0.28 | 99 | 1009.1 |
| 20260506094538 | 59 | 203 | 0.0 | 2.0 | 0.00 | 0.00 | 0.28 | 99 | 1009.1 |
| 20260506093321 | 58 | 225 | 1.0 | 2.0 | 0.00 | 0.00 | 0.26 | 99 | 1009.4 |
| 20260506092747 | 59 | 270 | 0.0 | 0.0 | 0.00 | 0.00 | 0.25 | 99 | 1009.4 |
| 20260506092113 | 59 | 248 | 0.0 | 2.0 | 0.00 | 0.00 | 0.24 | 99 | 1009.4 |
| 20260506090323 | 59 | 270 | 0.0 | 2.0 | 0.00 | 0.00 | 0.22 | 99 | 1009.4 |
| 20260506085736 | 59 | 293 | 3.0 | 3.0 | 0.00 | 0.00 | 0.21 | 99 | 1009.4 |
| 20260506085114 | 59 | 23 | 1.0 | 2.0 | 0.00 | 0.00 | 0.20 | 99 | 1009.4 |
| 20260506083926 | 59 | 225 | 1.0 | 2.0 | 0.00 | 0.00 | 0.20 | 99 | 1009.4 |
| 20260506083337 | 59 | 293 | 3.0 | 3.0 | 0.00 | 0.00 | 0.20 | 99 | 1009.4 |
| 20260506082737 | 59 | 270 | 3.0 | 3.0 | 0.00 | 0.00 | 0.20 | 99 | 1009.1 |
| 20260506082142 | 59 | 225 | 4.0 | 5.0 | 0.00 | 0.00 | 0.20 | 99 | 1009.4 |
| 20260506081514 | 59 | 203 | 1.0 | 2.0 | 0.00 | 0.00 | 0.20 | 99 | 1009.4 |
| 20260506080930 | 59 | 203 | 2.0 | 2.0 | 0.00 | 0.00 | 0.20 | 99 | 1009.4 |
| 20260506080318 | 59 | 270 | 7.0 | 7.0 | 0.00 | 0.00 | 0.20 | 99 | 1009.8 |
| 20260506073309 | 59 | 203 | 2.0 | 3.0 | 0.00 | 0.00 | 0.10 | 99 | 1010.1 |
| 20260506072709 | 59 | 180 | 4.0 | 4.0 | 0.00 | 0.00 | 0.08 | 99 | 1010.1 |
| 20260506072143 | 60 | 270 | 1.0 | 4.0 | 0.00 | 0.00 | 0.06 | 99 | 1010.1 |
| 20260506071550 | 59 | 23 | 0.0 | 2.0 | 0.00 | 0.00 | 0.03 | 99 | 1010.1 |
| 20260506070907 | 59 | 225 | 2.0 | 2.0 | 0.00 | 0.00 | 0.01 | 99 | 1009.8 |
| 20260506070330 | 59 | 23 | 0.0 | 1.0 | 0.00 | 0.00 | 0.00 | 99 | 1009.8 |
| 20260506062127 | 60 | 90 | 0.0 | 2.0 | 0.00 | 0.00 | 0.00 | 99 | 1009.8 |
| 20260506061510 | 60 | 23 | 0.0 | 1.0 | 0.00 | 0.00 | 0.00 | 99 | 1010.1 |
| 20260506060342 | 60 | 45 | 1.0 | 1.0 | 0.00 | 0.00 | 0.00 | 98 | 1010.1 |
| 20260506050949 | 60 | 203 | 0.0 | 0.0 | 0.00 | 0.00 | 0.00 | 94 | 1010.1 |
| 20260506050336 | 60 | 225 | 1.0 | 1.0 | 0.00 | 0.00 | 0.00 | 93 | 1010.1 |
| 20260506044516 | 61 | 293 | 0.0 | 2.0 | 0.00 | 0.00 | 0.00 | 92 | 1010.4 |
| 20260506043920 | 61 | 270 | 1.0 | 1.0 | 0.00 | 0.00 | 0.00 | 90 | 1010.4 |
| 20260506042725 | 62 | 180 | 2.0 | 2.0 | 0.00 | 0.00 | 0.00 | 88 | 1010.4 |
| 20260506042128 | 62 | 203 | 2.0 | 2.0 | 0.00 | 0.00 | 0.00 | 87 | 1010.8 |
| 20260506041543 | 62 | 90 | 2.0 | 3.0 | 0.00 | 0.00 | 0.00 | 87 | 1010.8 |
| 20260506040349 | 62 | 270 | 0.0 | 0.0 | 0.00 | 0.00 | 0.00 | 84 | 1011.1 |
| 20260506035712 | 63 | 270 | 0.0 | 0.0 | 0.00 | 0.00 | 0.00 | 84 | 1010.8 |
| 20260506035141 | 63 | 180 | 0.0 | 0.0 | 0.00 | 0.00 | 0.00 | 84 | 1010.8 |
| 20260506033948 | 63 | 225 | 0.0 | 0.0 | 0.00 | 0.00 | 0.00 | 84 | 1010.8 |
| 20260506033317 | 63 | 248 | 0.0 | 0.0 | 0.00 | 0.00 | 0.00 | 84 | 1010.8 |
| 20260506032715 | 63 | 135 | 0.0 | 0.0 | 0.00 | 0.00 | 0.00 | 84 | 1010.8 |
| 20260506032147 | 63 | 203 | 1.0 | 2.0 | 0.00 | 0.00 | 0.00 | 84 | 1010.8 |
| 20260506031550 | 63 | 338 | 0.0 | 3.0 | 0.00 | 0.00 | 0.00 | 84 | 1010.8 |
| 20260506030914 | 63 | 203 | 1.0 | 1.0 | 0.00 | 0.00 | 0.00 | 83 | 1010.8 |
| 20260506030347 | 63 | 248 | 0.0 | 0.0 | 0.00 | 0.00 | 0.00 | 83 | 1010.8 |
| 20260506025746 | 64 | 180 | 0.0 | 0.0 | 0.00 | 0.00 | 0.00 | 82 | 1010.8 |
| 20260506025129 | 64 | 270 | 0.0 | 0.0 | 0.00 | 0.00 | 0.00 | 81 | 1011.1 |
| 20260506024518 | 64 | 293 | 0.0 | 2.0 | 0.00 | 0.00 | 0.00 | 81 | 1011.1 |
| 20260506023916 | 64 | 203 | 1.0 | 2.0 | 0.00 | 0.00 | 0.00 | 80 | 1011.1 |
| 20260506023351 | 64 | 23 | 3.0 | 3.0 | 0.00 | 0.00 | 0.00 | 80 | 1010.8 |
| 20260506022716 | 64 | 203 | 2.0 | 2.0 | 0.00 | 0.00 | 0.00 | 80 | 1011.1 |
| 20260506022143 | 64 | 0 | 1.0 | 1.0 | 0.00 | 0.00 | 0.00 | 79 | 1010.8 |
| 20260506021545 | 64 | 225 | 0.0 | 0.0 | 0.00 | 0.00 | 0.00 | 79 | 1011.1 |
| 20260506020946 | 64 | 293 | 0.0 | 0.0 | 0.00 | 0.00 | 0.00 | 79 | 1010.8 |
| 20260506020333 | 64 | 203 | 0.0 | 0.0 | 0.00 | 0.00 | 0.00 | 78 | 1010.8 |
| 20260506015719 | 65 | 203 | 0.0 | 0.0 | 0.00 | 0.00 | 0.00 | 77 | 1010.8 |
| 20260506015150 | 65 | 0 | 0.0 | 0.0 | 0.00 | 0.00 | 0.00 | 77 | 1010.8 |
| 20260506014532 | 65 | 180 | 1.0 | 2.0 | 0.00 | 0.00 | 0.00 | 76 | 1010.8 |
| 20260506013937 | 65 | 203 | 0.0 | 0.0 | 0.00 | 0.00 | 0.00 | 75 | 1011.1 |
| 20260506013345 | 66 | 293 | 0.0 | 0.0 | 0.00 | 0.00 | 0.00 | 75 | 1011.1 |
| 20260506012147 | 66 | 225 | 2.0 | 2.0 | 0.00 | 0.00 | 0.00 | 75 | 1010.8 |
| 20260506010911 | 66 | 180 | 2.0 | 2.0 | 0.00 | 0.00 | 0.00 | 73 | 1011.1 |
| 20260506003348 | 68 | 180 | 1.0 | 1.0 | 0.00 | 0.00 | 0.00 | 66 | 1011.1 |
| 20260506002745 | 69 | 180 | 0.0 | 0.0 | 0.00 | 0.00 | 0.00 | 65 | 1011.1 |
| 20260506002128 | 69 | 225 | 0.0 | 2.0 | 0.00 | 0.00 | 0.00 | 65 | 1011.1 |
| 20260506001517 | 70 | 203 | 1.0 | 2.0 | 0.00 | 0.00 | 0.00 | 62 | 1011.1 |
| 20260506000919 | 70 | 158 | 0.0 | 2.0 | 0.00 | 0.00 | 0.00 | 61 | 1011.1 |
| 20260506000349 | 71 | 248 | 0.0 | 0.0 | 0.00 | 0.00 | 0.00 | 59 | 1011.1 |
| 20260505235739 | 71 | 180 | 2.0 | 2.0 | 0.00 | 0.00 | 0.00 | 59 | 1011.1 |
| 20260505235119 | 71 | 225 | 0.0 | 1.0 | 0.00 | 0.00 | 0.00 | 57 | 1011.1 |
| 20260505234527 | 72 | 180 | 1.0 | 1.0 | 0.00 | 0.00 | 0.00 | 57 | 1011.5 |
| 20260505233341 | 72 | 180 | 1.0 | 2.0 | 0.00 | 0.00 | 0.00 | 55 | 1011.5 |
| 20260505232713 | 74 | 203 | 2.0 | 2.0 | 0.00 | 0.00 | 0.00 | 53 | 1011.5 |
| 20260505232150 | 74 | 158 | 2.0 | 2.0 | 0.00 | 0.00 | 0.00 | 50 | 1011.5 |
| 20260505231552 | 74 | 203 | 0.0 | 2.0 | 0.00 | 0.00 | 0.00 | 49 | 1011.5 |
| 20260505230932 | 75 | 158 | 1.0 | 2.0 | 0.00 | 0.00 | 0.00 | 48 | 1011.5 |
| 20260505230345 | 75 | 248 | 4.0 | 4.0 | 0.00 | 0.00 | 0.00 | 49 | 1011.5 |
| 20260505225114 | 76 | 23 | 3.0 | 4.0 | 0.00 | 0.00 | 0.00 | 46 | 1011.5 |
| 20260505224513 | 76 | 45 | 3.0 | 4.0 | 0.00 | 0.00 | 0.00 | 46 | 1011.5 |
| 20260505223921 | 76 | 270 | 2.0 | 7.0 | 0.00 | 0.00 | 0.00 | 46 | 1011.5 |
| 20260505223312 | 76 | 270 | 2.0 | 4.0 | 0.00 | 0.00 | 0.00 | 45 | 1011.5 |
| 20260505222747 | 77 | 270 | 4.0 | 4.0 | 0.00 | 0.00 | 0.00 | 45 | 1011.5 |
| 20260505222114 | 77 | 225 | 2.0 | 6.0 | 0.00 | 0.00 | 0.00 | 45 | 1011.5 |
| 20260505221516 | 78 | 158 | 2.0 | 4.0 | 0.00 | 0.00 | 0.00 | 46 | 1011.5 |
| 20260505220313 | 79 | 270 | 1.0 | 3.0 | 0.00 | 0.00 | 0.00 | 46 | 1011.8 |
| 20260505215741 | 81 | 270 | 1.0 | 2.0 | 0.00 | 0.00 | 0.00 | 44 | 1011.5 |
| 20260505215149 | 82 | 203 | 2.0 | 5.0 | 0.00 | 0.00 | 0.00 | 45 | 1011.8 |
| 20260505214545 | 80 | 248 | 3.0 | 4.0 | 0.00 | 0.00 | 0.00 | 45 | 1011.5 |
| 20260505213941 | 81 | 203 | 5.0 | 5.0 | 0.00 | 0.00 | 0.00 | 45 | 1011.8 |
| 20260505213316 | 80 | 338 | 4.0 | 4.0 | 0.00 | 0.00 | 0.00 | 46 | 1011.5 |
| 20260505212742 | 80 | 68 | 3.0 | 4.0 | 0.00 | 0.00 | 0.00 | 46 | 1011.5 |
| 20260505212125 | 79 | 270 | 2.0 | 4.0 | 0.00 | 0.00 | 0.00 | 47 | 1011.5 |
| 20260505211527 | 79 | 23 | 1.0 | 5.0 | 0.00 | 0.00 | 0.00 | 47 | 1011.5 |
| 20260505210344 | 79 | 113 | 3.0 | 6.0 | 0.00 | 0.00 | 0.00 | 47 | 1011.8 |
| 20260505205752 | 80 | 23 | 3.0 | 3.0 | 0.00 | 0.00 | 0.00 | 45 | 1011.8 |
| 20260505205138 | 82 | 23 | 3.0 | 3.0 | 0.00 | 0.00 | 0.00 | 46 | 1012.1 |
| 20260505204543 | 82 | 23 | 3.0 | 3.0 | 0.00 | 0.00 | 0.00 | 46 | 1012.1 |
| 20260505203317 | 81 | 225 | 5.0 | 5.0 | 0.00 | 0.00 | 0.00 | 46 | 1012.1 |
| 20260505202754 | 81 | 113 | 2.0 | 3.0 | 0.00 | 0.00 | 0.00 | 46 | 1012.1 |
| 20260505202112 | 79 | 158 | 2.0 | 5.0 | 0.00 | 0.00 | 0.00 | 48 | 1012.5 |
| 20260505201533 | 79 | 45 | 5.0 | 5.0 | 0.00 | 0.00 | 0.00 | 47 | 1012.1 |
| 20260505200940 | 79 | 270 | 4.0 | 6.0 | 0.00 | 0.00 | 0.00 | 47 | 1012.5 |
| 20260505195709 | 78 | 158 | 3.0 | 3.0 | 0.00 | 0.00 | 0.00 | 48 | 1012.5 |
| 20260505194543 | 78 | 203 | 3.0 | 7.0 | 0.00 | 0.00 | 0.00 | 48 | 1012.8 |
| 20260505193940 | 79 | 113 | 3.0 | 4.0 | 0.00 | 0.00 | 0.00 | 48 | 1012.8 |